Thedford, NE

9:09 PM CST on November 20, 2017 (GMT -0600)
Thedford

Weather History for KTIF - March, 2013

Change the Weather History Date:

Wednesday, March 20, 2013

  Actual Average (KANW) Record (KANW)
Temperature  
Mean Temperature 30 °F -  
Max Temperature 48 °F 46 °F 125 °F (1999)
Min Temperature 11 °F 25 °F 10 °F (2016)
Degree Days  
Heating Degree Days 36    
Moisture  
Dew Point 9 °F    
Average Humidity 45    
Maximum Humidity 76    
Minimum Humidity 21    
Precipitation  
Precipitation 0.00 in - - ()
Sea Level Pressure  
Sea Level Pressure 30.16 in    
Wind  
Wind Speed 5 mph (SSW)    
Max Wind Speed 15 mph    
Max Gust Speed 21 mph    
Visibility 10 miles    
Events      
Averages and records for this station are not official NWS values.
T = Trace of Precipitation, MM = Missing Value Source: NWS Daily Summary

Daily Weather History Graph

Daily Weather History Graph

Search for Another Location

Airport or City:

Trip Planner

Search our weather history database for the weather conditions in past years. The results will help you decide how hot, cold, wet, or windy it might be!

Date:

Astronomy

Mar. 20, 2013 Rise Set
Actual Time 7:45 AM CDT 7:54 PM CDT
Civil Twilight 7:17 AM CDT 8:22 PM CDT
Nautical Twilight 6:44 AM CDT 8:55 PM CDT
Astronomical Twilight 6:11 AM CDT 9:28 PM CDT
Moon 1:26 PM CDT (3/20) 3:31 AM CDT (3/20)
Length of Visible Light 13h 05m
Length of Day
12h 09m
First Quarter, 59% of the Moon is Illuminated
Mar 20
First Quarter
Mar 27
Full
Apr 2
Last Quarter
Apr 10
New
Apr 18
First Quarter

Hourly Weather History & Observations

Time (CDT) Temp. Windchill Dew Point Humidity Pressure Visibility Wind Dir Wind Speed Gust Speed Precip Events Conditions
12:15 AM 22.1 °F 17.4 °F 7.9 °F 54% 30.34 in 10.0 mi NNW 3.5 mph - N/A   Clear
12:35 AM 21.6 °F - 8.6 °F 57% 30.35 in 10.0 mi Calm Calm - N/A   Clear
12:55 AM 20.5 °F 14.0 °F 9.0 °F 61% 30.35 in 10.0 mi NNW 4.6 mph - N/A   Clear
1:15 AM 20.7 °F 15.8 °F 10.0 °F 64% 30.35 in 10.0 mi NNW 3.5 mph - N/A   Clear
1:35 AM 19.8 °F - 10.4 °F 67% 30.35 in 10.0 mi Calm Calm - N/A   Clear
1:55 AM 18.3 °F 11.5 °F 10.2 °F 71% 30.36 in 10.0 mi WNW 4.6 mph - N/A   Clear
2:15 AM 17.6 °F 7.3 °F 9.9 °F 72% 30.37 in 10.0 mi WSW 8.1 mph - N/A   Clear
2:35 AM 16.7 °F 9.6 °F 9.5 °F 73% 30.37 in 10.0 mi WSW 4.6 mph - N/A   Clear
2:55 AM 17.4 °F - 9.5 °F 71% 30.37 in 10.0 mi Calm Calm - N/A   Clear
3:15 AM 16.5 °F 9.4 °F 8.1 °F 69% 30.37 in 10.0 mi WNW 4.6 mph - N/A   Clear
3:35 AM 16.9 °F 11.5 °F 8.1 °F 68% 30.37 in 10.0 mi West 3.5 mph - N/A   Clear
3:55 AM 15.8 °F - 7.5 °F 70% 30.35 in 10.0 mi Calm Calm - N/A   Clear
4:15 AM 14.2 °F 8.4 °F 7.0 °F 73% 30.35 in 10.0 mi West 3.5 mph - N/A   Clear
4:35 AM 15.4 °F 9.8 °F 6.4 °F 68% 30.34 in 10.0 mi WNW 3.5 mph - N/A   Clear
4:55 AM 13.1 °F 5.4 °F 5.7 °F 72% 30.33 in 10.0 mi West 4.6 mph - N/A   Clear
5:15 AM 14.0 °F 5.1 °F 5.9 °F 70% 30.33 in 10.0 mi West 5.8 mph - N/A   Clear
5:35 AM 14.7 °F - 6.1 °F 69% 30.32 in 10.0 mi Calm Calm - N/A   Clear
5:55 AM 13.5 °F 7.5 °F 5.7 °F 71% 30.33 in 10.0 mi West 3.5 mph - N/A   Clear
6:15 AM 12.6 °F - 5.7 °F 74% 30.32 in 10.0 mi Calm Calm - N/A   Clear
6:35 AM 12.0 °F 5.9 °F 4.8 °F 73% 30.31 in 10.0 mi West 3.5 mph - N/A   Clear
6:55 AM 11.3 °F - 5.0 °F 76% 30.31 in 10.0 mi Calm Calm - N/A   Clear
7:15 AM 11.5 °F 3.5 °F 4.8 °F 75% 30.31 in 10.0 mi West 4.6 mph - N/A   Clear
7:35 AM 11.1 °F - 4.5 °F 75% 30.30 in 10.0 mi Calm Calm - N/A   Clear
7:55 AM 12.2 °F - 5.0 °F 73% 30.31 in 10.0 mi Calm Calm - N/A   Clear
8:15 AM 12.4 °F 6.3 °F 5.5 °F 74% 30.31 in 10.0 mi WSW 3.5 mph - N/A   Clear
8:35 AM 15.4 °F - 8.2 °F 73% 30.31 in 10.0 mi Calm Calm - N/A   Clear
8:55 AM 17.1 °F - 10.0 °F 74% 30.30 in 10.0 mi Calm Calm - N/A   Clear
9:15 AM 21.2 °F - 12.0 °F 68% 30.30 in 10.0 mi Calm Calm - N/A   Clear
9:35 AM 23.4 °F - 13.6 °F 66% 30.30 in 10.0 mi Calm Calm - N/A   Clear
9:55 AM 26.6 °F 21.2 °F 9.7 °F 49% 30.29 in 10.0 mi WNW 4.6 mph - N/A   Clear
10:15 AM 29.1 °F - 4.6 °F 35% 30.28 in 10.0 mi Calm Calm - N/A   Clear
10:35 AM 29.8 °F - 1.8 °F 30% 30.27 in 10.0 mi Calm Calm - N/A   Clear
10:55 AM 31.5 °F 28.1 °F 1.8 °F 28% 30.26 in 10.0 mi West 3.5 mph - N/A   Clear
11:15 AM 32.5 °F 26.2 °F 1.8 °F 27% 30.26 in 10.0 mi SSW 6.9 mph - N/A   Clear
11:35 AM 34.5 °F 30.4 °F 3.0 °F 27% 30.25 in 10.0 mi SW 4.6 mph - N/A   Clear
11:55 AM 34.7 °F 28.8 °F 4.6 °F 28% 30.23 in 10.0 mi SW 6.9 mph - N/A   Clear
12:15 PM 36.3 °F 30.8 °F 5.4 °F 27% 30.22 in 10.0 mi SW 6.9 mph - N/A   Clear
12:35 PM 37.2 °F 30.0 °F 6.6 °F 28% 30.21 in 10.0 mi SSW 10.4 mph - N/A   Clear
12:55 PM 38.3 °F 33.9 °F 7.2 °F 28% 30.19 in 10.0 mi SSW 5.8 mph 19.6 mph N/A   Clear
1:15 PM 39.0 °F 32.8 °F 7.0 °F 27% 30.18 in 10.0 mi South 9.2 mph 16.1 mph N/A   Clear
1:35 PM 40.8 °F 35.6 °F 7.5 °F 25% 30.16 in 10.0 mi South 8.1 mph - N/A   Clear
1:55 PM 41.2 °F 34.5 °F 7.3 °F 25% 30.14 in 10.0 mi South 11.5 mph 19.6 mph N/A   Clear
2:15 PM 42.6 °F 37.2 °F 8.1 °F 24% 30.12 in 10.0 mi SSW 9.2 mph 19.6 mph N/A   Clear
2:35 PM 43.2 °F 39.7 °F 8.2 °F 24% 30.10 in 10.0 mi South 5.8 mph 16.1 mph N/A   Clear
2:55 PM 44.2 °F 38.8 °F 8.8 °F 24% 30.08 in 10.0 mi South 10.4 mph 16.1 mph N/A   Clear
3:15 PM 44.8 °F 41.0 °F 9.9 °F 24% 30.07 in 10.0 mi South 6.9 mph 11.5 mph N/A   Clear
3:35 PM 45.5 °F 39.6 °F 9.5 °F 23% 30.05 in 10.0 mi SSW 12.7 mph 18.4 mph N/A   Clear
3:55 PM 46.2 °F 40.5 °F 9.5 °F 23% 30.03 in 10.0 mi South 12.7 mph 17.3 mph N/A   Clear
4:15 PM 47.1 °F - 9.5 °F 22% 30.02 in 10.0 mi South 11.5 mph 20.7 mph N/A   Clear
4:35 PM 47.8 °F - 9.7 °F 21% 30.01 in 10.0 mi South 10.4 mph 16.1 mph N/A   Clear
4:55 PM 47.8 °F - 10.0 °F 22% 30.00 in 10.0 mi South 11.5 mph 20.7 mph N/A   Clear
5:15 PM 48.0 °F - 9.9 °F 21% 29.99 in 10.0 mi South 12.7 mph 20.7 mph N/A   Clear
5:35 PM 47.8 °F - 10.0 °F 22% 29.98 in 10.0 mi SSW 15.0 mph 20.7 mph N/A   Clear
5:55 PM 46.6 °F - 10.4 °F 23% 29.98 in 10.0 mi SSW 11.5 mph 19.6 mph N/A   Clear
6:15 PM 46.0 °F 40.2 °F 10.8 °F 24% 29.97 in 10.0 mi South 12.7 mph 18.4 mph N/A   Clear
6:35 PM 45.9 °F 40.0 °F 10.8 °F 24% 29.96 in 10.0 mi SSE 12.7 mph 17.3 mph N/A   Clear
6:55 PM 45.5 °F 39.2 °F 10.9 °F 25% 29.95 in 10.0 mi South 13.8 mph - N/A   Clear
7:15 PM 44.8 °F 39.4 °F 10.4 °F 25% 29.95 in 10.0 mi South 10.4 mph - N/A   Clear
7:35 PM 44.1 °F 39.0 °F 10.6 °F 26% 29.93 in 10.0 mi South 9.2 mph 16.1 mph N/A   Clear
7:55 PM 42.8 °F 38.0 °F 11.3 °F 28% 29.92 in 10.0 mi SSE 8.1 mph - N/A   Clear
8:15 PM 41.2 °F 36.6 °F 11.7 °F 30% 29.92 in 10.0 mi SE 6.9 mph - N/A   Clear
8:35 PM 41.0 °F 35.2 °F 11.8 °F 30% 29.91 in 10.0 mi SE 9.2 mph - N/A   Mostly Cloudy
8:55 PM 41.0 °F 35.8 °F 11.8 °F 30% 29.91 in 10.0 mi SE 8.1 mph - N/A   Mostly Cloudy
9:15 PM 40.1 °F 34.7 °F 12.4 °F 32% 29.91 in 10.0 mi ESE 8.1 mph - N/A   Mostly Cloudy
9:35 PM 40.3 °F 33.9 °F 12.2 °F 32% 29.92 in 10.0 mi SE 10.4 mph - N/A   Mostly Cloudy
9:55 PM 40.1 °F 32.7 °F 12.2 °F 32% 29.91 in 10.0 mi SE 12.7 mph - N/A   Overcast
10:15 PM 39.7 °F 31.5 °F 12.2 °F 32% 29.91 in 10.0 mi SE 15.0 mph - N/A   Overcast
10:35 PM 39.2 °F 32.0 °F 12.6 °F 34% 29.91 in 10.0 mi SE 11.5 mph - N/A   Overcast
10:55 PM 38.8 °F 31.2 °F 13.1 °F 35% 29.91 in 10.0 mi SE 12.7 mph - N/A   Overcast
11:15 PM 38.5 °F 30.7 °F 13.6 °F 36% 29.91 in 10.0 mi SE 12.7 mph 16.1 mph N/A   Overcast
11:35 PM 38.3 °F 30.9 °F 14.4 °F 38% 29.90 in 10.0 mi SE 11.5 mph - N/A   Overcast
11:55 PM 37.8 °F 29.8 °F 14.7 °F 39% 29.89 in 10.0 mi SE 12.7 mph - N/A   Overcast